Total_Precipitation_Accumulation
1.38 1.30 1.19 1.08 1.07 1.08 1.10 1.16 1.28 1.19 0.93 0.71 0.67 0.69 0.74 0.79 0.87 0.84 0.78 0.94 0.98 0.98 1.02 1.06 1.08 1.04 1.02 1.04 1.10 1.18 1.27 1.34 1.40 1.46 1.47 1.45 1.48 1.60
1.27 1.27 1.22 1.13 1.10 1.11 1.16 1.20 1.27 1.32 1.16 0.84 0.73 0.74 0.83 0.93 1.05 0.96 0.88 1.01 0.98 0.96 0.98 0.97 0.93 0.90 0.89 0.90 0.93 1.00 1.06 1.12 1.20 1.33 1.45 1.51 1.59 1.70
1.17 1.20 1.22 1.19 1.20 1.19 1.24 1.30 1.34 1.40 1.38 1.08 0.89 0.85 0.88 0.90 0.93 0.90 0.85 0.85 0.82 0.91 0.87 0.83 0.79 0.77 0.76 0.78 0.80 0.84 0.88 0.95 1.03 1.14 1.27 1.37 1.41 1.45
1.10 1.15 1.17 1.18 1.24 1.26 1.31 1.34 1.36 1.35 1.34 1.20 0.98 0.88 0.83 0.78 0.78 0.78 0.75 0.71 0.67 0.76 0.75 0.72 0.70 0.68 0.69 0.71 0.71 0.73 0.78 0.85 0.90 0.96 1.01 1.08 1.12 1.15
0.97 0.99 1.00 1.04 1.11 1.15 1.20 1.25 1.25 1.24 1.24 1.15 0.96 0.81 0.74 0.72 0.75 0.75 0.69 0.65 0.59 0.62 0.63 0.60 0.58 0.57 0.59 0.61 0.64 0.66 0.64 0.65 0.66 0.70 0.77 0.87 0.96 1.00
0.87 0.89 0.91 0.95 0.99 1.05 1.12 1.16 1.17 1.18 1.19 1.17 1.07 0.90 0.77 0.70 0.72 0.73 0.70 0.62 0.56 0.51 0.59 0.57 0.54 0.52 0.49 0.48 0.46 0.47 0.49 0.53 0.58 0.62 0.67 0.73 0.81 0.90
0.90 0.94 0.99 1.09 1.09 1.05 1.02 1.02 1.04 1.10 1.12 1.12 1.03 0.89 0.77 0.69 0.68 0.63 0.62 0.62 0.61 0.55 0.55 0.52 0.48 0.46 0.45 0.46 0.45 0.42 0.44 0.50 0.57 0.61 0.68 0.74 0.78 0.85
0.93 0.93 0.96 1.07 1.04 1.02 0.97 0.92 0.94 1.01 1.06 1.01 0.90 0.76 0.61 0.52 0.52 0.59 0.65 0.72 0.71 0.53 0.53 0.53 0.49 0.49 0.44 0.41 0.47 0.45 0.43 0.47 0.53 0.59 0.63 0.68 0.71 0.75
0.91 0.89 0.85 0.82 0.84 0.76 0.81 0.85 0.86 0.85 0.82 0.78 0.75 0.62 0.54 0.49 0.58 0.69 0.70 0.70 0.59 0.44 0.53 0.63 0.56 0.52 0.44 0.43 0.50 0.45 0.44 0.47 0.51 0.54 0.57 0.61 0.66 0.69
0.75 0.73 0.70 0.65 0.63 0.64 0.66 0.71 0.63 0.59 0.58 0.55 0.53 0.51 0.51 0.54 0.63 0.74 0.78 0.80 0.70 0.60 0.61 0.68 0.57 0.51 0.44 0.43 0.50 0.48 0.48 0.51 0.55 0.57 0.60 0.62 0.65 0.69
0.56 0.56 0.56 0.53 0.61 0.69 0.64 0.60 0.54 0.52 0.56 0.59 0.61 0.61 0.66 0.71 0.74 0.81 0.89 0.99 0.88 0.65 0.56 0.56 0.50 0.46 0.45 0.46 0.49 0.55 0.53 0.54 0.56 0.59 0.60 0.63 0.64 0.67
0.39 0.39 0.46 0.47 0.57 0.65 0.58 0.56 0.53 0.45 0.45 0.50 0.52 0.52 0.51 0.55 0.67 0.66 0.75 1.00 0.92 0.68 0.41 0.46 0.50 0.58 0.73 0.50 0.43 0.47 0.53 0.57 0.56 0.56 0.56 0.58 0.64 0.67
0.36 0.34 0.36 0.47 0.53 0.57 0.58 0.50 0.50 0.53 0.49 0.48 0.49 0.50 0.50 0.50 0.52 0.53 0.59 0.86 1.06 0.80 0.40 0.62 0.82 0.71 0.86 0.62 0.42 0.42 0.44 0.50 0.55 0.55 0.56 0.58 0.64 0.75
0.34 0.32 0.35 0.48 0.54 0.55 0.52 0.51 0.58 0.61 0.53 0.53 0.54 0.51 0.48 0.46 0.44 0.45 0.50 0.56 0.67 0.69 0.50 0.76 1.17 0.96 1.06 0.86 0.51 0.41 0.44 0.46 0.51 0.54 0.54 0.65 0.71 0.76
0.35 0.38 0.42 0.47 0.50 0.48 0.49 0.53 0.54 0.51 0.50 0.52 0.49 0.43 0.41 0.43 0.48 0.54 0.56 0.58 0.60 0.57 0.55 0.60 0.85 0.95 1.19 1.17 0.76 0.47 0.46 0.49 0.49 0.56 0.61 0.66 0.71 0.78
0.41 0.41 0.44 0.44 0.44 0.43 0.46 0.47 0.46 0.46 0.49 0.51 0.47 0.45 0.49 0.54 0.58 0.59 0.65 0.64 0.69 0.60 0.52 0.50 0.58 0.89 1.14 0.91 0.89 0.72 0.55 0.60 0.55 0.61 0.68 0.66 0.63 0.71
0.52 0.49 0.45 0.42 0.40 0.39 0.39 0.40 0.42 0.44 0.48 0.47 0.52 0.55 0.56 0.57 0.56 0.56 0.64 0.71 0.73 0.57 0.49 0.46 0.50 0.61 0.78 0.85 0.88 0.67 0.58 0.63 0.66 0.76 0.85 0.82 0.67 0.67
0.64 0.55 0.44 0.38 0.37 0.38 0.39 0.41 0.42 0.43 0.45 0.49 0.55 0.58 0.62 0.62 0.59 0.56 0.61 0.71 0.70 0.56 0.50 0.48 0.56 0.72 0.71 0.62 0.60 0.63 0.65 0.69 0.68 0.73 0.86 1.03 0.82 0.66
0.57 0.45 0.38 0.36 0.36 0.38 0.42 0.45 0.44 0.42 0.47 0.55 0.59 0.62 0.67 0.68 0.67 0.66 0.64 0.68 0.66 0.57 0.52 0.53 0.69 1.05 1.11 0.67 0.40 0.46 0.70 0.79 0.78 0.83 0.89 1.07 1.09 0.82
0.41 0.35 0.34 0.36 0.40 0.44 0.47 0.49 0.50 0.50 0.52 0.54 0.58 0.63 0.71 0.77 0.74 0.68 0.67 0.70 0.72 0.65 0.59 0.53 0.61 0.96 1.37 1.11 0.77 0.44 0.48 0.75 1.06 1.16 0.96 0.85 0.84 0.77
0.32 0.31 0.34 0.40 0.45 0.49 0.52 0.55 0.59 0.60 0.58 0.63 0.65 0.65 0.72 0.84 0.79 0.67 0.68 0.68 0.74 0.75 0.68 0.52 0.46 0.61 0.99 1.33 1.09 0.56 0.47 0.56 0.87 1.29 1.32 1.23 0.98 0.76
0.36 0.38 0.39 0.43 0.49 0.54 0.57 0.60 0.64 0.63 0.65 0.69 0.70 0.71 0.73 0.84 0.85 0.76 0.74 0.78 0.72 0.67 0.65 0.56 0.55 0.68 0.94 1.24 0.96 0.57 0.48 0.50 0.58 0.67 0.97 1.49 1.96 1.78
0.45 0.47 0.47 0.50 0.55 0.60 0.64 0.65 0.64 0.61 0.62 0.70 0.72 0.72 0.76 0.80 0.75 0.77 0.78 0.80 0.83 0.78 0.74 0.72 0.66 0.69 0.73 0.81 0.84 0.67 0.53 0.49 0.51 0.57 0.64 0.73 0.97 1.22